tititudorancea.com
Station Historical Data
 
Daily Summary for February 19, 2018 Units:  Metric    English   Both
« Previous Day
Next Day »
Daily Weekly Monthly Yearly Custom
  Current: High: Low: Average:
Temperature: 22.8 °C -17.8 °C 14.8 °C 16.6 °C
Dew Point: 13.6 °C -17.8 °C 12.9 °C 13.6 °C
Humidity: 56 % Humidity % 53 % 82 %
Wind Speed: 13 km/h 0 km/h 4.5 km/h 15.4 km/h
Wind Gust: 22.2 km/h 0 km/h - -
Wind:SE - - SSW
Pressure: 1013.4 hPa 0 hPa 1011.7 hPa -
Precipitation: 0.25 mm      
Historical Graphs
 
 
Ararat weather Find more about Weather in Ararat, AU


 



 


Tabular Data for February 19, 2018
Time Temperature Dew Point Pressure Wind Wind Speed Wind Gust Humidity Rainfall Rate (Hourly)
-17.8 °C -17.8 °C 0 hPa Calm     Humidity % 0 mm
00:02 15.8 °C 13.8 °C 1013.1 hPa South 11.4 km/h 16.7 km/h 88 % 0 mm
00:07 15.8 °C 13.8 °C 1012.8 hPa South 9.8 km/h 18.5 km/h 88 % 0 mm
00:12 15.9 °C 13.9 °C 1012.8 hPa North 10.5 km/h 20.4 km/h 88 % 0 mm
00:17 15.9 °C 13.9 °C 1012.8 hPa SSW 13 km/h 18.5 km/h 88 % 0 mm
00:22 16 °C 14 °C 1012.8 hPa SSW 13.7 km/h 18.5 km/h 88 % 0 mm
00:27 16.1 °C 14.1 °C 1012.8 hPa South 8.7 km/h 18.5 km/h 88 % 0 mm
00:32 16.1 °C 14.1 °C 1012.8 hPa North 9.3 km/h 22.2 km/h 88 % 0 mm
00:37 16.1 °C 14.1 °C 1012.8 hPa North 12.7 km/h 14.8 km/h 88 % 0 mm
00:42 16.2 °C 14.2 °C 1012.8 hPa North 10 km/h 22.2 km/h 88 % 0 mm
00:47 16.1 °C 14.1 °C 1012.8 hPa SSE 14.8 km/h 20.4 km/h 88 % 0 mm
00:52 16.1 °C 14.1 °C 1012.8 hPa North 7.4 km/h 16.7 km/h 88 % 0.25 mm
00:57 16.1 °C 14.2 °C 1012.8 hPa SSE 10.5 km/h 20.4 km/h 89 % 0.25 mm
01:02 16 °C 14.2 °C 1013.1 hPa SSE 6.6 km/h 16.7 km/h 89 % 0.25 mm
01:07 16 °C 14.2 °C 1012.8 hPa SSE 10.8 km/h 18.5 km/h 89 % 0.25 mm
01:12 16 °C 14.2 °C 1012.8 hPa North 14.2 km/h 20.4 km/h 89 % 0.25 mm
01:17 16 °C 14.2 °C 1012.8 hPa North 5.5 km/h 16.7 km/h 89 % 0.25 mm
01:22 16 °C 14.2 °C 1012.8 hPa SSE 11.7 km/h 13 km/h 89 % 0.25 mm
01:27 16 °C 14.2 °C 1012.8 hPa SSE 4.5 km/h 13 km/h 89 % 0.25 mm
01:32 16 °C 14.2 °C 1012.8 hPa North 8 km/h 14.8 km/h 89 % 0.25 mm
01:37 16 °C 14.3 °C 1012.8 hPa North 12.1 km/h 16.7 km/h 90 % 0.25 mm
01:42 16 °C 14.3 °C 1012.4 hPa North 10 km/h 18.5 km/h 90 % 0.25 mm
01:47 15.9 °C 14.3 °C 1012.4 hPa South 7.4 km/h 14.8 km/h 90 % 0.25 mm
01:52 15.9 °C 14.3 °C 1012.4 hPa South 8.9 km/h 18.5 km/h 90 % 0 mm
01:57 15.9 °C 14.3 °C 1012.4 hPa North 9.5 km/h 20.4 km/h 90 % 0 mm
02:02 15.9 °C 14.3 °C 1012.4 hPa North 11.1 km/h 13 km/h 90 % 0 mm
02:07 15.9 °C 14.3 °C 1012.4 hPa North 8.4 km/h 16.7 km/h 90 % 0 mm
02:12 15.8 °C 14.2 °C 1012.4 hPa SSE 9.5 km/h 18.5 km/h 90 % 0 mm
02:17 15.8 °C 14.2 °C 1012.4 hPa North 11.4 km/h 13 km/h 90 % 0 mm
02:22 15.8 °C 14.2 °C 1012.4 hPa North 14 km/h 18.5 km/h 90 % 0 mm
02:27 15.8 °C 14.2 °C 1012.4 hPa SSE 9.8 km/h 14.8 km/h 90 % 0 mm
02:32 15.8 °C 14.2 °C 1012.4 hPa SE 7.6 km/h 11.3 km/h 90 % 0 mm
02:37 15.8 °C 14.4 °C 1012.4 hPa North 8.9 km/h 16.1 km/h 91 % 0 mm
02:42 15.8 °C 14.3 °C 1012.4 hPa SSE 8.5 km/h 13 km/h 91 % 0 mm
02:47 15.8 °C 14.4 °C 1012.4 hPa North 10.6 km/h 14.8 km/h 91 % 0 mm
02:52 15.8 °C 14.4 °C 1012.4 hPa North 11.1 km/h 16.7 km/h 91 % 0 mm
02:57 15.8 °C 14.3 °C 1012.4 hPa North 13.5 km/h 14.8 km/h 91 % 0 mm
03:02 15.8 °C 14.3 °C 1012.4 hPa South 9.5 km/h 14.5 km/h 91 % 0 mm
03:07 15.8 °C 14.4 °C 1012.4 hPa South 11.7 km/h 16.1 km/h 91 % 0 mm
03:12 15.8 °C 14.3 °C 1012.4 hPa SSE 10 km/h 18.5 km/h 91 % 0 mm
03:17 15.8 °C 14.3 °C 1012.4 hPa North 15.3 km/h 18.5 km/h 91 % 0 mm
03:22 15.8 °C 14.3 °C 1012.4 hPa SE 9.3 km/h 18.5 km/h 91 % 0 mm
03:27 15.8 °C 14.3 °C 1012.1 hPa SSE 14 km/h 16.1 km/h 91 % 0 mm
03:32 15.8 °C 14.3 °C 1012.1 hPa North 14.5 km/h 18.5 km/h 91 % 0 mm
03:37 15.8 °C 14.4 °C 1012.1 hPa North 13.2 km/h 24.1 km/h 91 % 0 mm
03:42 15.8 °C 14.2 °C 1012.1 hPa SE 13 km/h 22.5 km/h 90 % 0 mm
03:47 15.9 °C 14.3 °C 1012.1 hPa SSE 18.3 km/h 29.6 km/h 90 % 0 mm
03:52 15.9 °C 14.3 °C 1012.1 hPa SE 12.7 km/h 18.5 km/h 90 % 0 mm
03:57 15.9 °C 14.3 °C 1011.7 hPa North 13.5 km/h 16.7 km/h 90 % 0 mm
04:02 15.9 °C 14.3 °C 1012.1 hPa SE 11.1 km/h 24.1 km/h 90 % 0 mm
04:07 15.9 °C 14.3 °C 1012.1 hPa North 14.3 km/h 24.1 km/h 90 % 0 mm
04:13 15.9 °C 14.1 °C 1011.7 hPa North 15.8 km/h 31.5 km/h 89 % 0 mm
04:18 15.9 °C 14.1 °C 1012.1 hPa North 12.9 km/h 20.4 km/h 89 % 0 mm
04:23 15.9 °C 14.1 °C 1012.1 hPa SE 11.9 km/h 24.1 km/h 89 % 0 mm
04:28 16 °C 14.2 °C 1012.1 hPa North 13.8 km/h 20.9 km/h 89 % 0 mm
04:33 15.9 °C 14.1 °C 1012.1 hPa South 12.1 km/h 18.5 km/h 89 % 0 mm
04:38 15.9 °C 14.1 °C 1012.1 hPa SSE 10.3 km/h 24.1 km/h 89 % 0 mm
04:43 15.9 °C 14.1 °C 1012.1 hPa SSE 11.4 km/h 18.5 km/h 89 % 0 mm
04:48 15.8 °C 13.9 °C 1012.1 hPa SSE 17.9 km/h 25.9 km/h 89 % 0 mm
04:53 15.7 °C 13.9 °C 1012.1 hPa SSE 12.6 km/h 18.5 km/h 89 % 0 mm
04:58 15.7 °C 13.8 °C 1012.1 hPa North 13.5 km/h 18.5 km/h 89 % 0 mm
05:03 15.7 °C 13.8 °C 1012.1 hPa South 13.8 km/h 22.5 km/h 89 % 0 mm
05:08 15.7 °C 13.8 °C 1012.4 hPa SSE 19 km/h 25.9 km/h 89 % 0 mm
05:13 15.7 °C 13.8 °C 1012.4 hPa SSE 15.4 km/h 25.9 km/h 89 % 0 mm
05:18 15.7 °C 13.8 °C 1012.4 hPa SSE 9.7 km/h 18.5 km/h 89 % 0 mm
05:23 15.6 °C 13.8 °C 1012.4 hPa South 10.6 km/h 19.3 km/h 89 % 0 mm
05:28 15.6 °C 13.8 °C 1012.4 hPa South 14 km/h 20.4 km/h 89 % 0 mm
05:33 15.6 °C 13.8 °C 1012.4 hPa SSE 12.7 km/h 18.5 km/h 89 % 0 mm
05:38 15.6 °C 13.8 °C 1012.4 hPa SSE 13.8 km/h 22.2 km/h 89 % 0 mm
05:43 15.6 °C 13.8 °C 1012.4 hPa North 14.5 km/h 22.2 km/h 89 % 0 mm
05:48 15.6 °C 13.7 °C 1012.4 hPa SSE 14.2 km/h 20.9 km/h 89 % 0 mm
05:53 15.6 °C 13.7 °C 1012.4 hPa SE 13.7 km/h 18.5 km/h 89 % 0 mm
05:58 15.6 °C 13.7 °C 1012.4 hPa North 11.7 km/h 22.2 km/h 89 % 0 mm
06:03 15.5 °C 13.9 °C 1012.4 hPa SSW 13.5 km/h 19.3 km/h 90 % 0 mm
06:08 15.5 °C 13.9 °C 1012.4 hPa SSE 11.9 km/h 22.2 km/h 90 % 0 mm
06:13 15.4 °C 13.8 °C 1012.4 hPa South 10.3 km/h 16.7 km/h 90 % 0 mm
06:18 15.4 °C 13.8 °C 1012.4 hPa SE 13.4 km/h 22.2 km/h 90 % 0 mm
06:23 15.5 °C 13.9 °C 1012.8 hPa SSE 11.9 km/h 18.5 km/h 90 % 0 mm
06:28 15.5 °C 13.9 °C 1012.8 hPa North 13.7 km/h 27.8 km/h 90 % 0 mm
06:33 15.5 °C 13.9 °C 1012.8 hPa SSE 10.5 km/h 22.5 km/h 90 % 0 mm
06:38 15.5 °C 13.9 °C 1012.8 hPa SSE 10.5 km/h 27.8 km/h 90 % 0 mm
06:43 15.5 °C 13.9 °C 1012.8 hPa SSE 10.1 km/h 16.7 km/h 90 % 0 mm
06:48 15.4 °C 13.8 °C 1012.8 hPa South 14.8 km/h 22.5 km/h 90 % 0 mm
06:53 15.4 °C 13.8 °C 1013.1 hPa SSE 13.5 km/h 20.4 km/h 90 % 0 mm
06:58 15.4 °C 13.8 °C 1013.1 hPa North 11.3 km/h 20.4 km/h 90 % 0 mm
07:03 15.5 °C 13.9 °C 1013.1 hPa SE 18.8 km/h 29.6 km/h 90 % 0 mm
07:08 15.5 °C 13.9 °C 1013.1 hPa SSE 16.4 km/h 27.8 km/h 90 % 0 mm
07:13 15.5 °C 13.9 °C 1013.1 hPa North 14.2 km/h 22.2 km/h 90 % 0 mm
07:18 15.5 °C 13.9 °C 1013.1 hPa SSE 19 km/h 31.5 km/h 90 % 0 mm
07:23 15.5 °C 13.9 °C 1013.4 hPa North 10.5 km/h 18.5 km/h 90 % 0 mm
07:28 15.4 °C 13.8 °C 1013.4 hPa SSE 14 km/h 25.9 km/h 90 % 0 mm
07:33 15.4 °C 13.8 °C 1013.4 hPa SSE 15.4 km/h 22.2 km/h 90 % 0 mm
07:38 15.4 °C 13.8 °C 1013.8 hPa North 20.3 km/h 31.5 km/h 90 % 0 mm
07:43 15.3 °C 13.7 °C 1013.8 hPa North 16.1 km/h 25.9 km/h 90 % 0 mm
07:48 15.3 °C 13.7 °C 1013.8 hPa SSE 13.4 km/h 20.4 km/h 90 % 0 mm
07:53 15.2 °C 13.6 °C 1013.8 hPa SSE 16.7 km/h 20.4 km/h 90 % 0 mm
07:58 15.2 °C 13.6 °C 1013.8 hPa SSE 10.1 km/h 18.5 km/h 90 % 0 mm
08:03 15.2 °C 13.6 °C 1013.8 hPa North 12.6 km/h 18.5 km/h 90 % 0 mm
08:08 15.2 °C 13.6 °C 1013.8 hPa SSE 18 km/h 27.8 km/h 90 % 0 mm
08:13 15.2 °C 13.6 °C 1013.8 hPa SE 7.7 km/h 11.3 km/h 90 % 0 mm
08:18 15.2 °C 13.6 °C 1014.1 hPa North 14.8 km/h 25.9 km/h 90 % 0 mm
08:23 15.2 °C 13.6 °C 1014.1 hPa SSE 15.6 km/h 18.5 km/h 90 % 0 mm
08:28 15.2 °C 13.6 °C 1014.1 hPa South 12.1 km/h 18.5 km/h 90 % 0 mm
08:33 15.2 °C 13.4 °C 1014.1 hPa SSE 12.9 km/h 18.5 km/h 89 % 0 mm
08:38 15.1 °C 13.3 °C 1014.1 hPa South 16.7 km/h 27.8 km/h 89 % 0 mm
08:43 15.1 °C 13.4 °C 1014.1 hPa South 20.4 km/h 20.4 km/h 90 % 0 mm
08:48 14.9 °C 13.2 °C 1014.1 hPa North 17.4 km/h 33.3 km/h 89 % 0 mm
08:53 14.8 °C 13 °C 1014.1 hPa South 13.2 km/h 29.6 km/h 89 % 0 mm
08:58 14.8 °C 13 °C 1014.4 hPa South 15.8 km/h 24.1 km/h 89 % 0 mm
09:03 14.8 °C 13.1 °C 1014.4 hPa SE 16.1 km/h 22.2 km/h 89 % 0 mm
09:08 14.9 °C 13.2 °C 1014.4 hPa South 16.1 km/h 27.8 km/h 89 % 0 mm
09:13 15 °C 13 °C 1014.4 hPa South 18 km/h 25.9 km/h 88 % 0 mm
09:18 15.1 °C 13.1 °C 1014.4 hPa North 17.9 km/h 33.3 km/h 88 % 0 mm
09:23 15.2 °C 13 °C 1014.4 hPa North 16.3 km/h 24.1 km/h 87 % 0 mm
09:28 15.2 °C 13.1 °C 1014.4 hPa SE 14 km/h 25.9 km/h 87 % 0 mm
09:33 15.4 °C 13.3 °C 1014.4 hPa SSE 17.1 km/h 25.7 km/h 87 % 0 mm
09:38 15.5 °C 13.2 °C 1014.4 hPa SSE 20.1 km/h 29.6 km/h 86 % 0 mm
09:43 15.5 °C 13.2 °C 1014.4 hPa North 17.9 km/h 31.5 km/h 86 % 0 mm
09:48 15.6 °C 13.3 °C 1014.4 hPa SSE 15.8 km/h 35.2 km/h 86 % 0 mm
09:53 15.7 °C 13.2 °C 1014.4 hPa SE 18.7 km/h 24.1 km/h 85 % 0 mm
09:58 15.7 °C 13.2 °C 1014.4 hPa SE 25.1 km/h 35.2 km/h 85 % 0 mm
10:03 15.8 °C 13.3 °C 1014.8 hPa SE 17.4 km/h 22.2 km/h 85 % 0 mm
10:08 15.8 °C 13.1 °C 1014.8 hPa SE 21.7 km/h 29 km/h 84 % 0 mm
10:13 15.6 °C 13.1 °C 1014.8 hPa SSE 21.4 km/h 40.7 km/h 85 % 0 mm
10:18 15.5 °C 13 °C 1014.8 hPa North 18.8 km/h 29.6 km/h 85 % 0 mm
10:23 15.6 °C 13.1 °C 1014.8 hPa South 14 km/h 27.8 km/h 85 % 0 mm
10:28 15.7 °C 13.2 °C 1014.8 hPa SSE 10.1 km/h 25.9 km/h 85 % 0 mm
10:33 15.7 °C 13 °C 1014.8 hPa SSE 17.4 km/h 31.5 km/h 84 % 0 mm
10:38 15.7 °C 13 °C 1014.8 hPa South 10.9 km/h 18.5 km/h 84 % 0 mm
10:43 15.8 °C 12.9 °C 1014.8 hPa South 20.4 km/h 40.7 km/h 83 % 0 mm
10:48 15.9 °C 13 °C 1014.8 hPa SSE 22 km/h 40.7 km/h 83 % 0 mm
10:53 16.1 °C 13.2 °C 1014.8 hPa SSE 21.2 km/h 30.6 km/h 83 % 0 mm
10:58 16.6 °C 13.4 °C 1014.8 hPa SE 17.4 km/h 29 km/h 82 % 0 mm
11:03 17 °C 13.5 °C 1014.8 hPa North 19.2 km/h 31.5 km/h 80 % 0 mm
11:08 17.4 °C 13.6 °C 1014.8 hPa SSE 16.7 km/h 37 km/h 78 % 0 mm
11:13 17.4 °C 13.4 °C 1014.8 hPa SSE 17.2 km/h 33.3 km/h 77 % 0 mm
11:18 18.1 °C 13.6 °C 1014.8 hPa SE 19.5 km/h 29.6 km/h 75 % 0 mm
11:23 18.3 °C 13.6 °C 1014.8 hPa SSE 25.6 km/h 37 km/h 74 % 0 mm
11:28 18.1 °C 13.6 °C 1014.8 hPa SSE 22 km/h 35.2 km/h 75 % 0 mm
11:33 18.6 °C 13.6 °C 1014.8 hPa SE 20 km/h 20 km/h 73 % 0 mm
11:38 18.4 °C 13.3 °C 1014.8 hPa ESE 17.7 km/h 42.6 km/h 72 % 0 mm
11:43 18.4 °C 13.5 °C 1014.4 hPa SE 25.1 km/h 31.5 km/h 73 % 0 mm
11:48 18.3 °C 13.4 °C 1014.8 hPa SSE 16.9 km/h 37 km/h 73 % 0 mm
11:53 18.7 °C 13.5 °C 1014.4 hPa SE 18.7 km/h 31.5 km/h 72 % 0 mm
11:58 18.6 °C 13.2 °C 1014.4 hPa SE 19.8 km/h 37 km/h 71 % 0 mm
12:03 18.6 °C 13.4 °C 1014.4 hPa SE 16.4 km/h 29 km/h 72 % 0 mm
12:08 18.7 °C 13.3 °C 1014.4 hPa ESE 22.4 km/h 31.5 km/h 71 % 0 mm
12:13 19.1 °C 13.4 °C 1014.4 hPa SE 24.6 km/h 37 km/h 70 % 0 mm
12:18 19.2 °C 13.4 °C 1014.4 hPa SE 26.2 km/h 30.6 km/h 69 % 0 mm
12:23 19.7 °C 13.7 °C 1014.1 hPa SE 25.7 km/h 37 km/h 68 % 0 mm
12:28 19.6 °C 13.3 °C 1014.4 hPa SSE 28.5 km/h 31.5 km/h 67 % 0 mm
12:33 19.2 °C 13.3 °C 1014.4 hPa SSE 20 km/h 33.3 km/h 69 % 0 mm
12:38 19.2 °C 13.2 °C 1014.1 hPa South 16.9 km/h 33.3 km/h 68 % 0 mm
12:44 19.4 °C 13.3 °C 1014.4 hPa ESE 21.2 km/h 25.9 km/h 68 % 0 mm
12:49 19.2 °C 13.2 °C 1014.4 hPa SSE 22.5 km/h 33.3 km/h 68 % 0 mm
12:54 19.6 °C 13.3 °C 1014.1 hPa SE 21.6 km/h 25.9 km/h 67 % 0 mm
12:59 19.8 °C 13.2 °C 1014.1 hPa SSE 21.2 km/h 37 km/h 66 % 0 mm
13:04 19.8 °C 13.3 °C 1014.1 hPa SE 26.9 km/h 31.5 km/h 66 % 0 mm
13:09 20 °C 13.2 °C 1014.1 hPa ESE 25.7 km/h 40.7 km/h 65 % 0 mm
13:14 20.1 °C 13.3 °C 1014.1 hPa SE 16.7 km/h 31.5 km/h 65 % 0 mm
13:19 20.3 °C 13.3 °C 1014.1 hPa SSE 22.4 km/h 33.3 km/h 64 % 0 mm
13:24 20.5 °C 13.2 °C 1014.1 hPa SE 16.7 km/h 27.8 km/h 63 % 0 mm
13:29 20.6 °C 13.1 °C 1013.8 hPa South 22 km/h 37 km/h 62 % 0 mm
13:34 20.6 °C 13.3 °C 1013.8 hPa SSE 19 km/h 33.3 km/h 63 % 0 mm
13:39 21.3 °C 13.7 °C 1013.8 hPa South 22.5 km/h 31.5 km/h 62 % 0 mm
13:44 21.7 °C 13.1 °C 1013.8 hPa SE 32.8 km/h 48.3 km/h 58 % 0 mm
13:49 21.8 °C 13.4 °C 1013.8 hPa SSE 10.3 km/h 14.8 km/h 59 % 0 mm
13:54 22.2 °C 13.2 °C 1013.4 hPa SE 23.3 km/h 37 km/h 57 % 0 mm
13:59 22.4 °C 13.5 °C 1013.4 hPa SE 18.7 km/h 31.5 km/h 57 % 0 mm
14:04 22.8 °C 13.6 °C 1013.4 hPa SSE 22 km/h 40.2 km/h 56 % 0 mm
14:09 23 °C 13.4 °C 1013.4 hPa SE 30.9 km/h 50 km/h 55 % 0 mm
14:14 22.7 °C 13.4 °C 1013.4 hPa ESE 22.2 km/h 35.2 km/h 56 % 0 mm
14:19 22.6 °C 13.4 °C 1013.4 hPa SE 20.4 km/h 31.5 km/h 56 % 0 mm
14:24 22.9 °C 13.4 °C 1013.4 hPa SSE 23.2 km/h 35.2 km/h 55 % 0 mm
14:29 22.6 °C 13.4 °C 1013.4 hPa SE 18 km/h 33.3 km/h 56 % 0 mm
14:34 22.9 °C 13.4 °C 1013.4 hPa SSE 22.2 km/h 31.5 km/h 55 % 0 mm
14:39 23.2 °C 13.1 °C 1013.8 hPa SSE 28.5 km/h 37 km/h 53 % 0 mm
14:44 23 °C 13.4 °C 1013.4 hPa SE 28.8 km/h 41.8 km/h 55 % 0 mm
14:49 22.8 °C 13.6 °C 1013.4 hPa SE 13 km/h 22.2 km/h 56 % 0 mm
Ararat Weather
Compliments of Weather Underground - 1.5 mb
Click here to send mail.


ABOUT

Live weather data from Ararat, Victoria, Australia, 3377
Data uploaded from Cumulus every 5 minutes to Weather Underground.
This site then downloads the raw data for formatting and display.
Metric and imperial data can be displayed. Graphs and historical data available.
Includes Sun and Moon times and rain image live from BOM.

Check out Ararat Weather on Facebook, Twitter and Google +

Help support ongoing costs by checking out the ads





Follow @AraratWeather